Regional Weather Roundup
Issued by NWS

Home | Current Version | Previous Version | Graphics & Text | Print | Product List | Glossary On
Versions: 1 2 3 4 5 6 7 8 9 10 11 12 13 14 15 16 17 18 19 20 21 22 23 24 25 26 27 28 29 30 31 32 33 34 35 36 37 38 39 40 41 42 43 44 45 46 47 48 49 50
647
ASUS43 KBIS 182102
RWRND

NORTH DAKOTA REGIONAL WEATHER ROUNDUP
NATIONAL WEATHER SERVICE BISMARCK ND
400 PM CDT WED OCT 18 2017

NOTE: "FAIR" INDICATES FEW OR NO CLOUDS BELOW 12,000 FEET WITH NO
SIGNIFICANT WEATHER AND/OR OBSTRUCTIONS TO VISIBILITY.


NDZ001>003-009>011-017-182200-
NORTHWEST NORTH DAKOTA

CITY           SKY/WX    TMP DP  RH WIND       PRES   REMARKS
WILLISTON      CLOUDY    55  22  27 W17G26    29.93F
MINOT          SUNNY     58  18  21 W18G30    29.88S
MINOT AFB      SUNNY     56  18  22 W28G37    29.85S
$$

NDZ018>021-031>035-040>046-182200-
SOUTHWEST NORTH DAKOTA

CITY           SKY/WX    TMP DP  RH WIND       PRES   REMARKS
BISMARCK       SUNNY     61  21  21 W16       29.97F
DICKINSON      SUNNY     59  24  26 W15       29.96F
GARRISON         N/A     56  20  24 W23G35    29.92F
HETTINGER ARPT SUNNY     58  21  24 W13       30.00F
$$

NDZ004>008-012>016-024-026-027-054-182200-
NORTHEAST NORTH DAKOTA

CITY           SKY/WX    TMP DP  RH WIND       PRES   REMARKS
GRAND FORKS    MOSUNNY   61  14  16 W23G35    29.80S
GRND FRKS AFB  SUNNY     60  12  15 W26       29.81R
DEVILS LAKE    SUNNY     57  17  21 W30G39    29.83R
$$

NDZ022-023-025-028>030-036>039-047>053-182200-
SOUTHEAST NORTH DAKOTA

CITY           SKY/WX    TMP DP  RH WIND       PRES   REMARKS
FARGO          CLOUDY    61  14  16 W25G33    29.87R
JAMESTOWN      MOSUNNY   59  19  21 W21G28    29.91S
$$





USA.gov is the U.S. government's official web portal to all federal, state and local government web resources and services.